Location: Creston
(40.9870°N, 81.8938°W)
Time: 09:04:57
(UTC+00:00)

Cosmos 2219 - Pass Details

Date: 29 October 2020
Orbit: 832 x 862 km, 71.1° (Epoch: 27 November)

Event Time Altitude Azimuth Distance (km) Brightness Sun altitude
Rises 23:10:10 0° 338° (NNW) 3,445 6.5 -8.8°
Reaches altitude 10° 23:12:39 10° 340° (NNW) 2,506 5.8 -9.3°
Maximum altitude 23:18:25 74° 65° (ENE) 900 3.2 -10.4°
Drops below altitude 10° 23:24:09 10° 151° (SSE) 2,489 5.4 -11.4°
Sets 23:26:36 0° 153° (SSE) 3,419 6.2 -11.9°
